STARLINK-3893 (52579 NORAD) Tracking and Keplerian Element Data

This shows tracking and keplerian element data for the satellite.

Feedback or suggestion? Click here.




ElementValue
Catalog52579
NameSTARLINK-3893
Epoch Orbit2101
Epoch Day268.71025235
Epoch Year2022
RAAN34.8856
Inclination53.2196
Eccentricity0.0001434
Argument of Perigee67.613
Mean Anonmoly292.5014
Mean Motion15.08847005
Decay Rate1.332E-05
L11 52579U 22051AV 22268.71025235 .00001332 00000+0 10174-3 0 9997
L22 52579 53.2196 34.8856 0001434 67.6130 292.5014 15.08847005 21010

Live tracking and technical data element details for STARLINK-3893 (NORAD 52579). STARLINK-3893 can be tracked NOW for your location showing map with azimuth and elevation plus other details from your city location.

Track the satellite on the map from your city or location and see movement details for azimuth, elevation, latitude, longitude, range, height, and movement on the map or in text.







IsCatalogInMostPopularTable: catalog: 52579, numindb: 8
Update: records affected: 1



GetName: 52579 STARLINK-3893

Hit Count: updated at: Thu, 06 Oct 2022 04:56:24 GMT